Time,TemperatureF,DewpointF,PressureIn,WindDirection,WindDirectionDegrees,WindSpeedMPH,WindSpeedGustMPH,Humidity,HourlyPrecipIn,Conditions,Clouds,dailyrainin,SoftwareType,DateUTC
2013-01-12 00:00:00,55.0,39.6,29.72,SW,226,6.0,19.0,56,0.00,,---,0.00,VWS V14.01,2013-01-12 06:00:00,
2013-01-12 00:02:00,55.0,39.6,29.72,WSW,240,8.0,9.0,56,0.00,,---,0.00,VWS V14.01,2013-01-12 06:02:00,
2013-01-12 00:07:00,54.5,38.2,29.72,West,281,6.0,15.0,54,0.00,,---,0.00,VWS V14.01,2013-01-12 06:07:00,
2013-01-12 00:12:00,53.9,37.7,29.72,WSW,240,10.0,15.0,54,0.00,,---,0.00,VWS V14.01,2013-01-12 06:12:00,
2013-01-12 00:17:00,53.5,36.3,29.73,WSW,257,3.0,15.0,52,0.00,,---,0.00,VWS V14.01,2013-01-12 06:17:00,
2013-01-12 00:22:00,52.9,35.8,29.73,WSW,254,3.0,15.0,52,0.00,,---,0.00,VWS V14.01,2013-01-12 06:22:00,
2013-01-12 00:27:00,52.5,34.9,29.73,WSW,252,6.0,15.0,51,0.00,,---,0.00,VWS V14.01,2013-01-12 06:27:00,
2013-01-12 00:30:00,52.0,34.0,29.74,SW,221,2.0,15.0,50,0.00,,---,0.00,VWS V14.01,2013-01-12 06:30:00,
2013-01-12 00:32:00,52.0,34.0,29.74,SW,221,1.0,2.0,50,0.00,,---,0.00,VWS V14.01,2013-01-12 06:32:00,
2013-01-12 00:37:00,51.6,33.6,29.74,SW,232,4.0,7.0,50,0.00,,---,0.00,VWS V14.01,2013-01-12 06:37:00,
2013-01-12 00:42:00,51.1,32.6,29.74,WSW,244,3.0,9.0,49,0.00,,---,0.00,VWS V14.01,2013-01-12 06:42:00,
2013-01-12 00:47:00,50.8,32.3,29.75,West,259,10.0,10.0,49,0.00,,---,0.00,VWS V14.01,2013-01-12 06:47:00,
2013-01-12 00:52:00,50.5,31.6,29.75,WSW,250,6.0,10.0,48,0.00,,---,0.00,VWS V14.01,2013-01-12 06:52:00,
2013-01-12 00:57:00,50.1,31.2,29.75,WSW,252,5.0,11.0,48,0.00,,---,0.00,VWS V14.01,2013-01-12 06:57:00,
2013-01-12 01:00:00,49.8,30.9,29.77,West,277,1.0,11.0,48,0.00,,---,0.00,VWS V14.01,2013-01-12 07:00:00,
2013-01-12 01:02:00,49.8,30.9,29.77,West,277,0.0,1.0,48,0.00,,---,0.00,VWS V14.01,2013-01-12 07:02:00,
2013-01-12 01:07:00,49.4,30.5,29.77,West,260,0.0,8.0,48,0.00,,---,0.00,VWS V14.01,2013-01-12 07:07:00,
2013-01-12 01:12:00,48.9,30.1,29.77,WSW,255,1.0,8.0,48,0.00,,---,0.00,VWS V14.01,2013-01-12 07:12:00,
2013-01-12 01:17:00,48.6,29.8,29.78,WSW,248,4.0,9.0,48,0.00,,---,0.00,VWS V14.01,2013-01-12 07:17:00,
2013-01-12 01:22:00,48.5,29.7,29.78,SSE,155,0.0,9.0,48,0.00,,---,0.00,VWS V14.01,2013-01-12 07:22:00,
2013-01-12 01:27:00,48.2,29.5,29.78,WSW,250,3.0,9.0,48,0.00,,---,0.00,VWS V14.01,2013-01-12 07:27:00,
2013-01-12 01:30:00,48.0,29.3,29.79,WSW,244,1.0,9.0,48,0.00,,---,0.00,VWS V14.01,2013-01-12 07:30:00,
2013-01-12 01:32:00,48.0,29.3,29.79,WSW,244,3.0,3.0,48,0.00,,---,0.00,VWS V14.01,2013-01-12 07:32:00,
2013-01-12 01:37:00,47.9,29.2,29.79,WNW,300,2.0,9.0,48,0.00,,---,0.00,VWS V14.01,2013-01-12 07:37:00,
2013-01-12 01:42:00,47.4,29.2,29.79,North,351,6.0,13.0,49,0.00,,---,0.00,VWS V14.01,2013-01-12 07:42:00,
2013-01-12 01:47:00,46.1,28.5,29.82,North,360,2.0,13.0,50,0.00,,---,0.00,VWS V14.01,2013-01-12 07:47:00,
2013-01-12 01:52:00,44.9,28.4,29.82,East,99,0.0,13.0,52,0.00,,---,0.00,VWS V14.01,2013-01-12 07:52:00,
2013-01-12 01:57:00,43.8,27.8,29.82,West,278,4.0,13.0,53,0.00,,---,0.00,VWS V14.01,2013-01-12 07:57:00,
2013-01-12 02:00:00,42.9,27.9,29.83,NW,317,9.0,13.0,55,0.00,,---,0.00,VWS V14.01,2013-01-12 08:00:00,
2013-01-12 02:02:00,42.9,27.9,29.83,NNW,346,5.0,9.0,55,0.00,,---,0.00,VWS V14.01,2013-01-12 08:02:00,
2013-01-12 02:07:00,42.2,27.6,29.83,NW,322,3.0,10.0,56,0.00,,---,0.00,VWS V14.01,2013-01-12 08:07:00,
2013-01-12 02:12:00,41.5,27.4,29.83,NNE,30,2.0,10.0,57,0.00,,---,0.00,VWS V14.01,2013-01-12 08:12:00,
2013-01-12 02:17:00,40.9,27.3,29.84,NNE,32,0.0,11.0,58,0.00,,---,0.00,VWS V14.01,2013-01-12 08:17:00,
2013-01-12 02:22:00,40.2,27.0,29.84,South,185,3.0,11.0,59,0.00,,---,0.00,VWS V14.01,2013-01-12 08:22:00,
2013-01-12 02:27:00,39.5,26.8,29.84,North,360,1.0,11.0,60,0.00,,---,0.00,VWS V14.01,2013-01-12 08:27:00,
2013-01-12 02:30:00,39.1,26.8,29.85,North,5,4.0,11.0,61,0.00,,---,0.00,VWS V14.01,2013-01-12 08:30:00,
2013-01-12 02:32:00,39.1,26.8,29.85,NNW,344,4.0,4.0,61,0.00,,---,0.00,VWS V14.01,2013-01-12 08:32:00,
2013-01-12 02:37:00,38.6,26.7,29.85,NNE,24,2.0,9.0,62,0.00,,---,0.00,VWS V14.01,2013-01-12 08:37:00,
2013-01-12 02:42:00,38.2,26.7,29.85,North,5,2.0,9.0,63,0.00,,---,0.00,VWS V14.01,2013-01-12 08:42:00,
2013-01-12 02:47:00,37.9,26.8,29.87,SW,227,3.0,9.0,64,0.00,,---,0.00,VWS V14.01,2013-01-12 08:47:00,
2013-01-12 02:52:00,37.6,26.5,29.87,NNW,341,1.0,9.0,64,0.00,,---,0.00,VWS V14.01,2013-01-12 08:52:00,
2013-01-12 02:57:00,37.5,26.8,29.87,NNW,336,5.0,9.0,65,0.00,,---,0.00,VWS V14.01,2013-01-12 08:57:00,
2013-01-12 03:00:00,37.5,26.8,29.87,NNW,341,2.0,10.0,65,0.00,,---,0.00,VWS V14.01,2013-01-12 09:00:00,
2013-01-12 03:02:00,37.5,26.8,29.87,NNW,341,2.0,10.0,65,0.00,,---,0.00,VWS V14.01,2013-01-12 09:02:00,
2013-01-12 03:07:00,37.3,27.0,29.87,NNW,333,3.0,8.0,66,0.00,,---,0.00,VWS V14.01,2013-01-12 09:07:00,
2013-01-12 03:12:00,37.3,27.0,29.87,NNW,346,2.0,8.0,66,0.00,,---,0.00,VWS V14.01,2013-01-12 09:12:00,
2013-01-12 03:17:00,37.2,27.3,29.88,NW,307,11.0,11.0,67,0.00,,---,0.00,VWS V14.01,2013-01-12 09:17:00,
2013-01-12 03:22:00,37.0,27.1,29.88,NNW,341,2.0,11.0,67,0.00,,---,0.00,VWS V14.01,2013-01-12 09:22:00,
2013-01-12 03:27:00,36.9,27.0,29.88,NNW,338,5.0,11.0,67,0.00,,---,0.00,VWS V14.01,2013-01-12 09:27:00,
2013-01-12 03:30:00,36.8,26.9,29.90,NW,312,5.0,11.0,67,0.00,,---,0.00,VWS V14.01,2013-01-12 09:30:00,
2013-01-12 03:32:00,36.8,26.9,29.90,NW,312,5.0,11.0,67,0.00,,---,0.00,VWS V14.01,2013-01-12 09:32:00,
2013-01-12 03:37:00,36.6,27.0,29.90,North,349,2.0,8.0,68,0.00,,---,0.00,VWS V14.01,2013-01-12 09:37:00,
2013-01-12 03:42:00,36.5,27.0,29.90,NNW,330,0.0,8.0,68,0.00,,---,0.00,VWS V14.01,2013-01-12 09:42:00,
2013-01-12 03:47:00,36.5,27.0,29.90,NNW,345,0.0,8.0,68,0.00,,---,0.00,VWS V14.01,2013-01-12 09:47:00,
2013-01-12 03:52:00,36.2,26.7,29.90,NW,315,5.0,8.0,68,0.00,,---,0.00,VWS V14.01,2013-01-12 09:52:00,
2013-01-12 03:57:00,35.9,26.4,29.90,NNW,336,5.0,8.0,68,0.00,,---,0.00,VWS V14.01,2013-01-12 09:57:00,
2013-01-12 04:00:00,35.8,26.3,29.90,NNW,343,4.0,8.0,68,0.00,,---,0.00,VWS V14.01,2013-01-12 10:00:00,
2013-01-12 04:02:00,35.8,26.3,29.90,NNW,348,3.0,8.0,68,0.00,,---,0.00,VWS V14.01,2013-01-12 10:02:00,
2013-01-12 04:07:00,35.3,25.8,29.90,NW,311,1.0,14.0,68,0.00,,---,0.00,VWS V14.01,2013-01-12 10:07:00,
2013-01-12 04:12:00,34.9,25.4,29.90,North,350,4.0,14.0,68,0.00,,---,0.00,VWS V14.01,2013-01-12 10:12:00,
2013-01-12 04:17:00,34.3,24.9,29.91,NNW,346,1.0,14.0,68,0.00,,---,0.00,VWS V14.01,2013-01-12 10:17:00,
2013-01-12 04:22:00,33.8,24.4,29.91,North,5,9.0,14.0,68,0.00,,---,0.00,VWS V14.01,2013-01-12 10:22:00,
2013-01-12 04:27:00,33.5,24.1,29.91,NNW,341,4.0,14.0,68,0.00,,---,0.00,VWS V14.01,2013-01-12 10:27:00,
2013-01-12 04:30:00,33.4,24.0,29.92,NNW,328,3.0,14.0,68,0.00,,---,0.00,VWS V14.01,2013-01-12 10:30:00,
2013-01-12 04:32:00,33.4,24.0,29.92,NNW,329,5.0,14.0,68,0.00,,---,0.00,VWS V14.01,2013-01-12 10:32:00,
2013-01-12 04:37:00,33.1,23.7,29.92,North,5,3.0,12.0,68,0.00,,---,0.00,VWS V14.01,2013-01-12 10:37:00,
2013-01-12 04:42:00,32.9,23.5,29.92,NNW,333,4.0,12.0,68,0.00,,---,0.00,VWS V14.01,2013-01-12 10:42:00,
2013-01-12 04:47:00,32.7,23.3,29.93,NNW,338,3.0,12.0,68,0.00,,---,0.00,VWS V14.01,2013-01-12 10:47:00,
2013-01-12 04:52:00,32.5,23.1,29.93,NW,304,7.0,12.0,68,0.00,,---,0.00,VWS V14.01,2013-01-12 10:52:00,
2013-01-12 04:57:00,32.4,23.0,29.93,NNW,348,2.0,12.0,68,0.00,,---,0.00,VWS V14.01,2013-01-12 10:57:00,
2013-01-12 05:00:00,32.2,22.8,29.93,NNW,338,2.0,12.0,68,0.00,,---,0.00,VWS V14.01,2013-01-12 11:00:00,
2013-01-12 05:02:00,32.2,22.8,29.93,NNW,337,2.0,12.0,68,0.00,,---,0.00,VWS V14.01,2013-01-12 11:02:00,
2013-01-12 05:07:00,32.1,22.8,29.93,NNW,343,4.0,7.0,68,0.00,,---,0.00,VWS V14.01,2013-01-12 11:07:00,
2013-01-12 05:12:00,31.8,22.5,29.93,NNW,330,4.0,12.0,68,0.00,,---,0.00,VWS V14.01,2013-01-12 11:12:00,
2013-01-12 05:17:00,31.3,21.6,29.93,NNW,340,3.0,12.0,67,0.00,,---,0.00,VWS V14.01,2013-01-12 11:17:00,
2013-01-12 05:22:00,31.0,21.3,29.93,North,5,2.0,14.0,67,0.00,,---,0.00,VWS V14.01,2013-01-12 11:22:00,
2013-01-12 05:27:00,30.7,20.7,29.93,NNW,340,6.0,14.0,66,0.00,,---,0.00,VWS V14.01,2013-01-12 11:27:00,
2013-01-12 05:30:00,30.4,20.4,29.94,NNW,327,6.0,14.0,66,0.00,,---,0.00,VWS V14.01,2013-01-12 11:30:00,
2013-01-12 05:32:00,30.4,20.4,29.94,NNW,344,2.0,14.0,66,0.00,,---,0.00,VWS V14.01,2013-01-12 11:32:00,
2013-01-12 05:37:00,30.1,20.1,29.94,NNE,17,3.0,12.0,66,0.00,,---,0.00,VWS V14.01,2013-01-12 11:37:00,
2013-01-12 05:42:00,29.8,19.8,29.94,NNW,339,8.0,12.0,66,0.00,,---,0.00,VWS V14.01,2013-01-12 11:42:00,
2013-01-12 05:47:00,29.7,19.4,29.95,NW,315,4.0,13.0,65,0.00,,---,0.00,VWS V14.01,2013-01-12 11:47:00,
2013-01-12 05:52:00,29.4,19.1,29.95,NW,321,4.0,13.0,65,0.00,,---,0.00,VWS V14.01,2013-01-12 11:52:00,
2013-01-12 05:57:00,29.1,18.8,29.95,North,355,7.0,13.0,65,0.00,,---,0.00,VWS V14.01,2013-01-12 11:57:00,
2013-01-12 06:00:00,28.8,18.5,29.95,North,360,5.0,13.0,65,0.00,,---,0.00,VWS V14.01,2013-01-12 12:00:00,
2013-01-12 06:02:00,28.8,18.5,29.95,North,5,5.0,13.0,65,0.00,,---,0.00,VWS V14.01,2013-01-12 12:02:00,
2013-01-12 06:07:00,28.7,18.4,29.95,West,277,6.0,9.0,65,0.00,,---,0.00,VWS V14.01,2013-01-12 12:07:00,
2013-01-12 06:12:00,28.4,17.8,29.95,NW,306,2.0,12.0,64,0.00,,---,0.00,VWS V14.01,2013-01-12 12:12:00,
2013-01-12 06:17:00,28.2,17.6,29.95,NNW,342,11.0,18.0,64,0.00,,---,0.00,VWS V14.01,2013-01-12 12:17:00,
2013-01-12 06:22:00,27.9,17.3,29.95,NW,319,1.0,18.0,64,0.00,,---,0.00,VWS V14.01,2013-01-12 12:22:00,
2013-01-12 06:27:00,27.8,17.2,29.95,NNW,327,5.0,18.0,64,0.00,,---,0.00,VWS V14.01,2013-01-12 12:27:00,
2013-01-12 06:30:00,27.6,17.0,29.97,NNW,335,5.0,18.0,64,0.00,,---,0.00,VWS V14.01,2013-01-12 12:30:00,
2013-01-12 06:32:00,27.8,17.2,29.97,NNW,336,6.0,18.0,64,0.00,,---,0.00,VWS V14.01,2013-01-12 12:32:00,
2013-01-12 06:37:00,27.6,17.0,29.97,NNE,19,5.0,13.0,64,0.00,,---,0.00,VWS V14.01,2013-01-12 12:37:00,
2013-01-12 06:41:00,27.5,16.9,29.97,NNW,327,1.0,13.0,64,0.00,,---,0.00,VWS V14.01,2013-01-12 12:41:00,
2013-01-12 06:46:00,27.5,16.9,29.98,NNW,337,4.0,13.0,64,0.00,,---,0.00,VWS V14.01,2013-01-12 12:46:00,
2013-01-12 06:51:00,27.3,16.4,29.98,North,5,5.0,13.0,63,0.00,,---,0.00,VWS V14.01,2013-01-12 12:51:00,
2013-01-12 06:56:00,27.3,16.4,29.98,NNW,344,7.0,13.0,63,0.00,,---,0.00,VWS V14.01,2013-01-12 12:56:00,
2013-01-12 07:00:00,27.2,16.3,29.99,NW,307,9.0,13.0,63,0.00,,---,0.00,VWS V14.01,2013-01-12 13:00:00,
2013-01-12 07:01:00,27.2,16.3,29.99,NE,34,3.0,13.0,63,0.00,,---,0.00,VWS V14.01,2013-01-12 13:01:00,
2013-01-12 07:06:00,27.2,16.3,29.99,North,360,8.0,9.0,63,0.00,,---,0.00,VWS V14.01,2013-01-12 13:06:00,
2013-01-12 07:11:00,27.0,16.1,29.99,North,360,7.0,10.0,63,0.00,,---,0.00,VWS V14.01,2013-01-12 13:11:00,
2013-01-12 07:16:00,26.9,16.0,29.99,North,350,4.0,10.0,63,0.00,,---,0.00,VWS V14.01,2013-01-12 13:16:00,
2013-01-12 07:21:00,26.7,15.8,29.99,NNE,14,6.0,12.0,63,0.00,,---,0.00,VWS V14.01,2013-01-12 13:21:00,
2013-01-12 07:26:00,26.7,15.8,29.99,NNW,328,2.0,12.0,63,0.00,,---,0.00,VWS V14.01,2013-01-12 13:26:00,
2013-01-12 07:30:00,26.6,15.7,29.99,WNW,301,5.0,12.0,63,0.00,,---,0.00,VWS V14.01,2013-01-12 13:30:00,
2013-01-12 07:31:00,26.6,15.7,29.99,NNW,342,5.0,12.0,63,0.00,,---,0.00,VWS V14.01,2013-01-12 13:31:00,
2013-01-12 07:36:00,26.7,15.8,29.99,NNW,339,8.0,12.0,63,0.00,,---,0.00,VWS V14.01,2013-01-12 13:36:00,
2013-01-12 07:41:00,26.7,16.2,29.99,NNW,333,2.0,12.0,64,0.00,,---,0.00,VWS V14.01,2013-01-12 13:41:00,
2013-01-12 07:46:00,26.7,16.2,30.01,NNW,335,3.0,12.0,64,0.00,,---,0.00,VWS V14.01,2013-01-12 13:46:00,
2013-01-12 07:51:00,26.7,16.2,30.01,NNW,346,2.0,12.0,64,0.00,,---,0.00,VWS V14.01,2013-01-12 13:51:00,
2013-01-12 07:56:00,26.7,16.2,30.01,NNW,333,4.0,12.0,64,0.00,,---,0.00,VWS V14.01,2013-01-12 13:56:00,
2013-01-12 08:00:00,26.6,16.1,29.99,NNW,340,7.0,15.0,64,0.00,,---,0.00,VWS V14.01,2013-01-12 14:00:00,
2013-01-12 08:01:00,26.6,16.1,29.99,NW,323,3.0,15.0,64,0.00,,---,0.00,VWS V14.01,2013-01-12 14:01:00,
2013-01-12 08:06:00,26.6,16.1,29.99,NNW,336,7.0,14.0,64,0.00,,---,0.00,VWS V14.01,2013-01-12 14:06:00,
2013-01-12 08:11:00,26.6,16.1,29.99,North,355,2.0,14.0,64,0.00,,---,0.00,VWS V14.01,2013-01-12 14:11:00,
2013-01-12 08:16:00,26.6,16.1,30.01,North,355,7.0,14.0,64,0.00,,---,0.00,VWS V14.01,2013-01-12 14:16:00,
2013-01-12 08:21:00,26.6,16.1,30.01,NNW,348,5.0,14.0,64,0.00,,---,0.00,VWS V14.01,2013-01-12 14:21:00,
2013-01-12 08:26:00,26.6,16.1,30.01,NNW,338,6.0,14.0,64,0.00,,---,0.00,VWS V14.01,2013-01-12 14:26:00,
2013-01-12 08:30:00,26.7,16.2,30.01,North,360,6.0,14.0,64,0.00,,---,0.00,VWS V14.01,2013-01-12 14:30:00,
2013-01-12 08:31:00,26.7,16.2,30.01,NNW,348,6.0,14.0,64,0.00,,---,0.00,VWS V14.01,2013-01-12 14:31:00,
2013-01-12 08:36:00,26.7,15.8,30.01,North,350,5.0,10.0,63,0.00,,---,0.00,VWS V14.01,2013-01-12 14:36:00,
2013-01-12 08:41:00,26.6,15.7,30.01,NNW,333,5.0,13.0,63,0.00,,---,0.00,VWS V14.01,2013-01-12 14:41:00,
2013-01-12 08:46:00,26.7,15.8,30.04,WNW,288,2.0,16.0,63,0.00,,---,0.00,VWS V14.01,2013-01-12 14:46:00,
2013-01-12 08:51:00,26.7,15.4,30.04,North,11,11.0,16.0,62,0.00,,---,0.00,VWS V14.01,2013-01-12 14:51:00,
2013-01-12 08:56:00,26.7,15.4,30.04,North,355,13.0,17.0,62,0.00,,---,0.00,VWS V14.01,2013-01-12 14:56:00,
2013-01-12 09:00:00,26.7,15.4,30.05,North,5,8.0,17.0,62,0.00,,---,0.00,VWS V14.01,2013-01-12 15:00:00,
2013-01-12 09:01:00,26.7,15.4,30.05,NNW,344,8.0,17.0,62,0.00,,---,0.00,VWS V14.01,2013-01-12 15:01:00,
2013-01-12 09:06:00,26.7,15.1,30.05,NNE,22,5.0,11.0,61,0.00,,---,0.00,VWS V14.01,2013-01-12 15:06:00,
2013-01-12 09:11:00,26.9,15.3,30.05,North,350,2.0,14.0,61,0.00,,---,0.00,VWS V14.01,2013-01-12 15:11:00,
2013-01-12 09:16:00,26.9,15.3,30.06,North,11,8.0,14.0,61,0.00,,---,0.00,VWS V14.01,2013-01-12 15:16:00,
2013-01-12 09:21:00,26.6,15.0,30.06,NNW,332,4.0,14.0,61,0.00,,---,0.00,VWS V14.01,2013-01-12 15:21:00,
2013-01-12 09:26:00,26.7,15.1,30.06,NNW,344,0.0,14.0,61,0.00,,---,0.00,VWS V14.01,2013-01-12 15:26:00,
2013-01-12 09:30:00,26.7,14.7,30.08,North,5,5.0,14.0,60,0.00,,---,0.00,VWS V14.01,2013-01-12 15:30:00,
2013-01-12 09:31:00,26.7,14.7,30.08,North,5,6.0,14.0,60,0.00,,---,0.00,VWS V14.01,2013-01-12 15:31:00,
2013-01-12 09:36:00,26.9,14.9,30.08,NW,325,3.0,7.0,60,0.00,,---,0.00,VWS V14.01,2013-01-12 15:36:00,
2013-01-12 09:41:00,27.0,15.0,30.08,NNE,13,4.0,8.0,60,0.00,,---,0.00,VWS V14.01,2013-01-12 15:41:00,
2013-01-12 09:46:00,27.2,15.2,30.09,NNW,346,5.0,9.0,60,0.00,,---,0.00,VWS V14.01,2013-01-12 15:46:00,
2013-01-12 09:51:00,27.3,15.3,30.09,NNW,343,6.0,9.0,60,0.00,,---,0.00,VWS V14.01,2013-01-12 15:51:00,
2013-01-12 09:56:00,27.6,15.6,30.09,NNE,26,7.0,9.0,60,0.00,,---,0.00,VWS V14.01,2013-01-12 15:56:00,
2013-01-12 10:00:00,27.6,15.6,30.07,North,355,7.0,10.0,60,0.00,,---,0.00,VWS V14.01,2013-01-12 16:00:00,
2013-01-12 10:01:00,27.6,15.2,30.07,North,355,8.0,10.0,59,0.00,,---,0.00,VWS V14.01,2013-01-12 16:01:00,
2013-01-12 10:06:00,27.6,15.2,30.07,North,9,3.0,10.0,59,0.00,,---,0.00,VWS V14.01,2013-01-12 16:06:00,
2013-01-12 10:11:00,27.6,15.2,30.07,NW,319,3.0,10.0,59,0.00,,---,0.00,VWS V14.01,2013-01-12 16:11:00,
2013-01-12 10:16:00,27.5,15.1,30.05,North,355,5.0,11.0,59,0.00,,---,0.00,VWS V14.01,2013-01-12 16:16:00,
2013-01-12 10:21:00,27.6,15.2,30.05,North,355,8.0,11.0,59,0.00,,---,0.00,VWS V14.01,2013-01-12 16:21:00,
2013-01-12 10:26:00,27.9,15.4,30.05,North,350,7.0,11.0,59,0.00,,---,0.00,VWS V14.01,2013-01-12 16:26:00,
2013-01-12 10:30:00,27.9,15.4,30.05,North,360,10.0,14.0,59,0.00,,---,0.00,VWS V14.01,2013-01-12 16:30:00,
2013-01-12 10:31:00,27.9,15.4,30.05,North,355,7.0,14.0,59,0.00,,---,0.00,VWS V14.01,2013-01-12 16:31:00,
2013-01-12 10:36:00,27.9,15.4,30.05,NNE,17,7.0,10.0,59,0.00,,---,0.00,VWS V14.01,2013-01-12 16:36:00,
2013-01-12 10:41:00,28.1,15.6,30.05,North,5,4.0,10.0,59,0.00,,---,0.00,VWS V14.01,2013-01-12 16:41:00,
2013-01-12 10:46:00,28.2,15.7,30.06,NNW,333,7.0,10.0,59,0.00,,---,0.00,VWS V14.01,2013-01-12 16:46:00,
2013-01-12 10:51:00,28.2,15.7,30.06,NNW,333,3.0,10.0,59,0.00,,---,0.00,VWS V14.01,2013-01-12 16:51:00,
2013-01-12 10:56:00,28.5,16.0,30.06,North,349,3.0,10.0,59,0.00,,---,0.00,VWS V14.01,2013-01-12 16:56:00,
2013-01-12 11:00:00,28.5,16.0,30.06,North,355,5.0,10.0,59,0.00,,---,0.00,VWS V14.01,2013-01-12 17:00:00,
2013-01-12 11:01:00,28.5,16.0,30.06,NNW,327,1.0,10.0,59,0.00,,---,0.00,VWS V14.01,2013-01-12 17:01:00,
2013-01-12 11:06:00,28.7,16.2,30.06,NNW,329,7.0,8.0,59,0.00,,---,0.00,VWS V14.01,2013-01-12 17:06:00,
2013-01-12 11:11:00,28.7,16.2,30.06,North,5,5.0,10.0,59,0.00,,---,0.00,VWS V14.01,2013-01-12 17:11:00,
2013-01-12 11:16:00,28.7,16.2,30.05,North,360,4.0,11.0,59,0.00,,---,0.00,VWS V14.01,2013-01-12 17:16:00,
2013-01-12 11:21:00,28.8,16.3,30.05,NNW,331,4.0,12.0,59,0.00,,---,0.00,VWS V14.01,2013-01-12 17:21:00,
2013-01-12 11:26:00,29.0,16.5,30.05,NNW,338,0.0,12.0,59,0.00,,---,0.00,VWS V14.01,2013-01-12 17:26:00,
2013-01-12 11:30:00,29.1,16.6,30.03,North,350,7.0,12.0,59,0.00,,---,0.00,VWS V14.01,2013-01-12 17:30:00,
2013-01-12 11:31:00,29.1,16.6,30.03,North,5,8.0,12.0,59,0.00,,---,0.00,VWS V14.01,2013-01-12 17:31:00,
2013-01-12 11:36:00,29.1,16.6,30.03,NNE,21,4.0,12.0,59,0.00,,---,0.00,VWS V14.01,2013-01-12 17:36:00,
2013-01-12 11:41:00,29.1,16.6,30.03,NE,37,9.0,13.0,59,0.00,,---,0.00,VWS V14.01,2013-01-12 17:41:00,
2013-01-12 11:46:00,29.4,16.9,30.01,North,360,3.0,15.0,59,0.00,,---,0.00,VWS V14.01,2013-01-12 17:46:00,
2013-01-12 11:51:00,29.5,17.0,30.01,NNW,332,3.0,15.0,59,0.00,,---,0.00,VWS V14.01,2013-01-12 17:51:00,
2013-01-12 11:56:00,29.4,16.9,30.01,North,355,10.0,15.0,59,0.00,,---,0.00,VWS V14.01,2013-01-12 17:56:00,
2013-01-12 12:00:00,29.4,16.9,30.01,NNW,343,8.0,15.0,59,0.00,,---,0.00,VWS V14.01,2013-01-12 18:00:00,
2013-01-12 12:01:00,29.4,16.9,30.01,NNW,348,7.0,15.0,59,0.00,,---,0.00,VWS V14.01,2013-01-12 18:01:00,
2013-01-12 12:06:00,29.1,16.2,30.01,NNW,344,10.0,13.0,58,0.00,,---,0.00,VWS V14.01,2013-01-12 18:06:00,
2013-01-12 12:11:00,29.0,16.1,30.01,North,360,10.0,13.0,58,0.00,,---,0.00,VWS V14.01,2013-01-12 18:11:00,
2013-01-12 12:16:00,28.8,15.9,30.01,North,360,10.0,13.0,58,0.00,,---,0.00,VWS V14.01,2013-01-12 18:16:00,
2013-01-12 12:21:00,28.8,15.9,30.01,NNW,341,3.0,13.0,58,0.00,,---,0.00,VWS V14.01,2013-01-12 18:21:00,
2013-01-12 12:26:00,28.7,15.8,30.01,North,351,7.0,13.0,58,0.00,,---,0.00,VWS V14.01,2013-01-12 18:26:00,
2013-01-12 12:30:00,28.7,15.8,30.02,NNE,22,6.0,13.0,58,0.00,,---,0.00,VWS V14.01,2013-01-12 18:30:00,
2013-01-12 12:31:00,28.7,15.8,30.02,North,360,8.0,13.0,58,0.00,,---,0.00,VWS V14.01,2013-01-12 18:31:00,
2013-01-12 12:36:00,28.7,15.8,30.02,North,5,5.0,8.0,58,0.00,,---,0.00,VWS V14.01,2013-01-12 18:36:00,
2013-01-12 12:41:00,29.0,16.1,30.02,North,350,2.0,8.0,58,0.00,,---,0.00,VWS V14.01,2013-01-12 18:41:00,
2013-01-12 12:46:00,29.0,16.1,30.01,North,355,5.0,8.0,58,0.00,,---,0.00,VWS V14.01,2013-01-12 18:46:00,
2013-01-12 12:51:00,29.0,16.1,30.01,NW,319,3.0,10.0,58,0.00,,---,0.00,VWS V14.01,2013-01-12 18:51:00,
2013-01-12 12:56:00,28.8,15.9,30.01,NNW,336,0.0,10.0,58,0.00,,---,0.00,VWS V14.01,2013-01-12 18:56:00,
2013-01-12 13:00:00,28.8,15.9,30.01,North,350,8.0,14.0,58,0.00,,---,0.00,VWS V14.01,2013-01-12 19:00:00,
2013-01-12 13:01:00,28.8,15.9,30.01,NNW,344,7.0,14.0,58,0.00,,---,0.00,VWS V14.01,2013-01-12 19:01:00,
2013-01-12 13:06:00,28.8,15.9,30.01,North,360,4.0,10.0,58,0.00,,---,0.00,VWS V14.01,2013-01-12 19:06:00,
2013-01-12 13:11:00,29.0,16.1,30.01,NW,321,5.0,10.0,58,0.00,,---,0.00,VWS V14.01,2013-01-12 19:11:00,
2013-01-12 13:16:00,29.0,16.1,30.00,WNW,292,9.0,13.0,58,0.00,,---,0.00,VWS V14.01,2013-01-12 19:16:00,
2013-01-12 13:21:00,28.8,15.9,30.00,NNW,337,1.0,13.0,58,0.00,,---,0.00,VWS V14.01,2013-01-12 19:21:00,
2013-01-12 13:26:00,28.8,15.9,30.00,NNW,338,11.0,13.0,58,0.00,,---,0.00,VWS V14.01,2013-01-12 19:26:00,
2013-01-12 13:30:00,28.7,15.8,30.02,NNE,17,3.0,13.0,58,0.00,,---,0.00,VWS V14.01,2013-01-12 19:30:00,
2013-01-12 13:31:00,28.7,15.8,30.02,North,351,8.0,13.0,58,0.00,,---,0.00,VWS V14.01,2013-01-12 19:31:00,
2013-01-12 13:36:00,28.7,15.8,30.02,North,355,7.0,9.0,58,0.00,,---,0.00,VWS V14.01,2013-01-12 19:36:00,
2013-01-12 13:41:00,28.5,15.6,30.02,NNW,333,7.0,11.0,58,0.00,,---,0.00,VWS V14.01,2013-01-12 19:41:00,
2013-01-12 13:46:00,28.5,15.6,30.01,NNE,32,6.0,11.0,58,0.00,,---,0.00,VWS V14.01,2013-01-12 19:46:00,
2013-01-12 13:51:00,28.5,15.6,30.01,NNW,336,3.0,11.0,58,0.00,,---,0.00,VWS V14.01,2013-01-12 19:51:00,
2013-01-12 13:56:00,28.5,15.6,30.01,North,350,7.0,11.0,58,0.00,,---,0.00,VWS V14.01,2013-01-12 19:56:00,
2013-01-12 14:00:00,28.5,15.6,30.01,NNW,340,5.0,11.0,58,0.00,,---,0.00,VWS V14.01,2013-01-12 20:00:00,
2013-01-12 14:01:00,28.5,15.6,30.01,North,360,6.0,11.0,58,0.00,,---,0.00,VWS V14.01,2013-01-12 20:01:00,
2013-01-12 14:06:00,28.7,15.8,30.01,NNW,330,6.0,10.0,58,0.00,,---,0.00,VWS V14.01,2013-01-12 20:06:00,
2013-01-12 14:11:00,28.7,15.8,30.01,NNW,337,7.0,10.0,58,0.00,,---,0.00,VWS V14.01,2013-01-12 20:11:00,
2013-01-12 14:16:00,28.7,15.8,30.00,NW,319,6.0,10.0,58,0.00,,---,0.00,VWS V14.01,2013-01-12 20:16:00,
2013-01-12 14:21:00,28.7,15.8,30.00,North,360,8.0,10.0,58,0.00,,---,0.00,VWS V14.01,2013-01-12 20:21:00,
2013-01-12 14:26:00,28.7,15.8,30.00,NNE,16,7.0,13.0,58,0.00,,---,0.00,VWS V14.01,2013-01-12 20:26:00,
2013-01-12 14:30:00,28.5,15.6,29.99,NW,311,8.0,13.0,58,0.00,,---,0.00,VWS V14.01,2013-01-12 20:30:00,
2013-01-12 14:31:00,28.5,15.6,29.99,NW,325,8.0,13.0,58,0.00,,---,0.00,VWS V14.01,2013-01-12 20:31:00,
2013-01-12 14:36:00,28.5,15.6,29.99,NNW,344,6.0,9.0,58,0.00,,---,0.00,VWS V14.01,2013-01-12 20:36:00,
2013-01-12 14:41:00,28.4,15.5,29.99,NNE,28,3.0,11.0,58,0.00,,---,0.00,VWS V14.01,2013-01-12 20:41:00,
2013-01-12 14:46:00,28.4,15.5,30.00,North,5,7.0,11.0,58,0.00,,---,0.00,VWS V14.01,2013-01-12 20:46:00,
2013-01-12 14:51:00,28.4,15.5,30.00,North,355,5.0,11.0,58,0.00,,---,0.00,VWS V14.01,2013-01-12 20:51:00,
2013-01-12 14:56:00,28.2,15.3,30.00,NNE,29,7.0,11.0,58,0.00,,---,0.00,VWS V14.01,2013-01-12 20:56:00,
2013-01-12 15:00:00,28.1,15.2,30.00,North,360,10.0,13.0,58,0.00,,---,0.00,VWS V14.01,2013-01-12 21:00:00,
2013-01-12 15:01:00,28.1,15.2,30.00,North,9,8.0,11.0,58,0.00,,---,0.00,VWS V14.01,2013-01-12 21:01:00,
2013-01-12 15:06:00,27.8,14.6,30.00,North,350,13.0,13.0,57,0.00,,---,0.00,VWS V14.01,2013-01-12 21:06:00,
2013-01-12 15:11:00,27.6,14.4,30.00,NNE,33,6.0,14.0,57,0.00,,---,0.00,VWS V14.01,2013-01-12 21:11:00,
2013-01-12 15:16:00,27.6,14.4,30.00,North,5,5.0,14.0,57,0.00,,---,0.00,VWS V14.01,2013-01-12 21:16:00,
2013-01-12 15:21:00,27.5,14.3,30.00,North,5,8.0,14.0,57,0.00,,---,0.00,VWS V14.01,2013-01-12 21:21:00,
2013-01-12 15:26:00,27.5,14.3,30.00,NNW,334,6.0,14.0,57,0.00,,---,0.00,VWS V14.01,2013-01-12 21:26:00,
2013-01-12 15:30:00,27.3,14.1,30.01,NNW,338,12.0,14.0,57,0.00,,---,0.00,VWS V14.01,2013-01-12 21:30:00,
2013-01-12 15:31:00,27.5,14.3,30.01,North,360,4.0,14.0,57,0.00,,---,0.00,VWS V14.01,2013-01-12 21:31:00,
2013-01-12 15:36:00,27.2,14.0,30.01,North,355,7.0,14.0,57,0.00,,---,0.00,VWS V14.01,2013-01-12 21:36:00,
2013-01-12 15:41:00,27.2,14.0,30.01,NNW,336,6.0,14.0,57,0.00,,---,0.00,VWS V14.01,2013-01-12 21:41:00,
2013-01-12 15:46:00,27.0,13.4,30.01,North,11,7.0,14.0,56,0.00,,---,0.00,VWS V14.01,2013-01-12 21:46:00,
2013-01-12 15:51:00,27.0,13.4,30.01,NW,320,5.0,14.0,56,0.00,,---,0.00,VWS V14.01,2013-01-12 21:51:00,
2013-01-12 15:56:00,27.0,13.4,30.01,NNW,348,4.0,14.0,56,0.00,,---,0.00,VWS V14.01,2013-01-12 21:56:00,
2013-01-12 16:00:00,27.0,13.4,30.03,North,355,2.0,14.0,56,0.00,,---,0.00,VWS V14.01,2013-01-12 22:00:00,
2013-01-12 16:01:00,27.0,13.4,30.03,North,355,5.0,14.0,56,0.00,,---,0.00,VWS V14.01,2013-01-12 22:01:00,
2013-01-12 16:06:00,27.0,13.4,30.03,NNW,328,11.0,14.0,56,0.00,,---,0.00,VWS V14.01,2013-01-12 22:06:00,
2013-01-12 16:11:00,27.0,13.4,30.03,North,355,7.0,14.0,56,0.00,,---,0.00,VWS V14.01,2013-01-12 22:11:00,
2013-01-12 16:16:00,26.9,13.3,30.03,NNW,338,4.0,14.0,56,0.00,,---,0.00,VWS V14.01,2013-01-12 22:16:00,
2013-01-12 16:21:00,26.9,13.3,30.03,NW,317,7.0,14.0,56,0.00,,---,0.00,VWS V14.01,2013-01-12 22:21:00,
2013-01-12 16:26:00,26.7,13.5,30.03,North,5,10.0,14.0,57,0.00,,---,0.00,VWS V14.01,2013-01-12 22:26:00,
2013-01-12 16:30:00,26.7,13.1,30.02,North,5,6.0,14.0,56,0.00,,---,0.00,VWS V14.01,2013-01-12 22:30:00,
2013-01-12 16:31:00,26.7,13.1,30.02,NNW,347,7.0,14.0,56,0.00,,---,0.00,VWS V14.01,2013-01-12 22:31:00,
2013-01-12 16:36:00,26.6,13.0,30.02,NNW,348,8.0,8.0,56,0.00,,---,0.00,VWS V14.01,2013-01-12 22:36:00,
2013-01-12 16:41:00,26.6,13.0,30.02,North,355,0.0,11.0,56,0.00,,---,0.00,VWS V14.01,2013-01-12 22:41:00,
2013-01-12 16:46:00,26.6,13.0,30.04,NNW,346,5.0,11.0,56,0.00,,---,0.00,VWS V14.01,2013-01-12 22:46:00,
2013-01-12 16:51:00,26.6,13.0,30.04,North,360,6.0,11.0,56,0.00,,---,0.00,VWS V14.01,2013-01-12 22:51:00,
2013-01-12 16:56:00,26.4,12.8,30.04,NNW,331,11.0,12.0,56,0.00,,---,0.00,VWS V14.01,2013-01-12 22:56:00,
2013-01-12 17:00:00,26.4,12.8,30.05,North,355,4.0,12.0,56,0.00,,---,0.00,VWS V14.01,2013-01-12 23:00:00,
2013-01-12 17:01:00,26.4,12.8,30.05,North,5,7.0,12.0,56,0.00,,---,0.00,VWS V14.01,2013-01-12 23:01:00,
2013-01-12 17:06:00,26.4,12.8,30.05,North,355,6.0,10.0,56,0.00,,---,0.00,VWS V14.01,2013-01-12 23:06:00,
2013-01-12 17:11:00,26.3,12.8,30.05,North,355,4.0,10.0,56,0.00,,---,0.00,VWS V14.01,2013-01-12 23:11:00,
2013-01-12 17:16:00,26.1,12.6,30.09,NNW,333,2.0,10.0,56,0.00,,---,0.00,VWS V14.01,2013-01-12 23:16:00,
2013-01-12 17:21:00,26.1,12.6,30.09,NW,313,1.0,10.0,56,0.00,,---,0.00,VWS V14.01,2013-01-12 23:21:00,
2013-01-12 17:26:00,26.0,12.5,30.09,NW,321,5.0,11.0,56,0.00,,---,0.00,VWS V14.01,2013-01-12 23:26:00,
2013-01-12 17:30:00,26.0,12.5,30.08,NNE,19,3.0,12.0,56,0.00,,---,0.00,VWS V14.01,2013-01-12 23:30:00,
2013-01-12 17:31:00,26.0,12.5,30.08,North,355,2.0,12.0,56,0.00,,---,0.00,VWS V14.01,2013-01-12 23:31:00,
2013-01-12 17:36:00,25.8,12.3,30.08,North,5,7.0,10.0,56,0.00,,---,0.00,VWS V14.01,2013-01-12 23:36:00,
2013-01-12 17:41:00,25.6,12.1,30.08,NE,49,3.0,14.0,56,0.00,,---,0.00,VWS V14.01,2013-01-12 23:41:00,
2013-01-12 17:46:00,25.6,12.1,30.07,NNW,341,2.0,14.0,56,0.00,,---,0.00,VWS V14.01,2013-01-12 23:46:00,
2013-01-12 17:51:00,25.4,11.9,30.07,North,355,6.0,14.0,56,0.00,,---,0.00,VWS V14.01,2013-01-12 23:51:00,
2013-01-12 17:56:00,25.3,11.8,30.07,NNE,33,3.0,15.0,56,0.00,,---,0.00,VWS V14.01,2013-01-12 23:56:00,
2013-01-12 18:00:00,25.1,11.6,30.02,North,355,16.0,16.0,56,0.00,,---,0.00,VWS V14.01,2013-01-13 00:00:00,
2013-01-12 18:01:00,25.1,11.6,30.02,North,355,11.0,15.0,56,0.00,,---,0.00,VWS V14.01,2013-01-13 00:01:00,
2013-01-12 18:06:00,24.8,11.3,30.02,NE,34,7.0,17.0,56,0.00,,---,0.00,VWS V14.01,2013-01-13 00:06:00,
2013-01-12 18:11:00,24.8,11.3,30.02,NNE,22,8.0,17.0,56,0.00,,---,0.00,VWS V14.01,2013-01-13 00:11:00,
2013-01-12 18:16:00,24.8,12.9,30.02,NNW,344,6.0,17.0,60,0.00,,---,0.00,VWS V14.01,2013-01-13 00:16:00,
2013-01-12 18:21:00,24.7,11.2,30.02,NNW,345,6.0,19.0,56,0.00,,---,0.00,VWS V14.01,2013-01-13 00:21:00,
2013-01-12 18:26:00,24.5,11.1,30.02,NNW,333,9.0,19.0,56,0.00,,---,0.00,VWS V14.01,2013-01-13 00:26:00,
2013-01-12 18:30:00,24.5,10.7,30.01,NNW,329,7.0,20.0,55,0.00,,---,0.00,VWS V14.01,2013-01-13 00:30:00,
2013-01-12 18:31:00,24.5,11.1,30.01,North,351,13.0,20.0,56,0.00,,---,0.00,VWS V14.01,2013-01-13 00:31:00,
2013-01-12 18:36:00,24.5,11.1,30.01,NNW,338,8.0,15.0,56,0.00,,---,0.00,VWS V14.01,2013-01-13 00:36:00,
2013-01-12 18:41:00,24.5,11.1,30.01,NNW,328,11.0,16.0,56,0.00,,---,0.00,VWS V14.01,2013-01-13 00:41:00,
2013-01-12 18:46:00,24.4,11.0,30.03,North,355,16.0,19.0,56,0.00,,---,0.00,VWS V14.01,2013-01-13 00:46:00,
2013-01-12 18:51:00,24.4,11.0,30.03,North,355,11.0,19.0,56,0.00,,---,0.00,VWS V14.01,2013-01-13 00:51:00,
2013-01-12 18:56:00,24.4,11.0,30.03,North,355,7.0,19.0,56,0.00,,---,0.00,VWS V14.01,2013-01-13 00:56:00,
2013-01-12 19:00:00,24.2,10.8,30.02,North,5,19.0,21.0,56,0.00,,---,0.00,VWS V14.01,2013-01-13 01:00:00,
2013-01-12 19:01:00,24.2,10.8,30.02,NNW,343,17.0,20.0,56,0.00,,---,0.00,VWS V14.01,2013-01-13 01:01:00,
2013-01-12 19:06:00,24.1,10.7,30.02,NE,35,7.0,21.0,56,0.00,,---,0.00,VWS V14.01,2013-01-13 01:06:00,
2013-01-12 19:11:00,24.1,10.7,30.02,NNW,334,7.0,21.0,56,0.00,,---,0.00,VWS V14.01,2013-01-13 01:11:00,
2013-01-12 19:16:00,24.1,10.7,30.02,NNW,340,11.0,21.0,56,0.00,,---,0.00,VWS V14.01,2013-01-13 01:16:00,
2013-01-12 19:21:00,24.1,10.7,30.02,NNW,346,7.0,21.0,56,0.00,,---,0.00,VWS V14.01,2013-01-13 01:21:00,
2013-01-12 19:26:00,24.1,11.1,30.02,NNW,348,4.0,21.0,57,0.00,,---,0.00,VWS V14.01,2013-01-13 01:26:00,
2013-01-12 19:30:00,24.2,11.2,30.06,NNW,348,6.0,21.0,57,0.00,,---,0.00,VWS V14.01,2013-01-13 01:30:00,
2013-01-12 19:31:00,24.2,11.2,30.06,NNW,330,4.0,21.0,57,0.00,,---,0.00,VWS V14.01,2013-01-13 01:31:00,
2013-01-12 19:36:00,24.1,11.1,30.06,NNE,13,5.0,11.0,57,0.00,,---,0.00,VWS V14.01,2013-01-13 01:36:00,
2013-01-12 19:41:00,24.1,11.1,30.06,North,360,8.0,14.0,57,0.00,,---,0.00,VWS V14.01,2013-01-13 01:41:00,
2013-01-12 19:46:00,24.1,11.1,30.04,NNW,338,12.0,15.0,57,0.00,,---,0.00,VWS V14.01,2013-01-13 01:46:00,
2013-01-12 19:51:00,24.1,11.1,30.04,North,351,9.0,16.0,57,0.00,,---,0.00,VWS V14.01,2013-01-13 01:51:00,
2013-01-12 19:56:00,24.1,11.1,30.04,North,355,11.0,17.0,57,0.00,,---,0.00,VWS V14.01,2013-01-13 01:56:00,
2013-01-12 20:00:00,24.1,11.5,30.04,North,355,8.0,17.0,58,0.00,,---,0.00,VWS V14.01,2013-01-13 02:00:00,
2013-01-12 20:01:00,24.1,11.1,30.04,NNW,346,7.0,17.0,57,0.00,,---,0.00,VWS V14.01,2013-01-13 02:01:00,
2013-01-12 20:06:00,24.1,11.5,30.04,NNW,343,5.0,13.0,58,0.00,,---,0.00,VWS V14.01,2013-01-13 02:06:00,
2013-01-12 20:11:00,24.1,11.5,30.04,NNW,333,1.0,13.0,58,0.00,,---,0.00,VWS V14.01,2013-01-13 02:11:00,
2013-01-12 20:16:00,24.1,11.5,30.07,North,350,6.0,13.0,58,0.00,,---,0.00,VWS V14.01,2013-01-13 02:16:00,
2013-01-12 20:21:00,24.2,11.6,30.07,North,5,7.0,13.0,58,0.00,,---,0.00,VWS V14.01,2013-01-13 02:21:00,
2013-01-12 20:26:00,24.2,11.6,30.07,NW,323,5.0,13.0,58,0.00,,---,0.00,VWS V14.01,2013-01-13 02:26:00,
2013-01-12 20:30:00,24.1,11.9,30.06,NW,315,2.0,13.0,59,0.00,,---,0.00,VWS V14.01,2013-01-13 02:30:00,
2013-01-12 20:31:00,24.1,11.5,30.06,North,355,9.0,13.0,58,0.00,,---,0.00,VWS V14.01,2013-01-13 02:31:00,
2013-01-12 20:36:00,23.9,10.5,30.06,North,349,11.0,16.0,56,0.00,,---,0.00,VWS V14.01,2013-01-13 02:36:00,
2013-01-12 20:41:00,23.8,11.6,30.06,NNW,327,6.0,16.0,59,0.00,,---,0.00,VWS V14.01,2013-01-13 02:41:00,
2013-01-12 20:46:00,23.6,11.4,30.06,NNW,348,11.0,16.0,59,0.00,,---,0.00,VWS V14.01,2013-01-13 02:46:00,
2013-01-12 20:51:00,23.6,11.8,30.06,NNW,338,10.0,16.0,60,0.00,,---,0.00,VWS V14.01,2013-01-13 02:51:00,
2013-01-12 20:56:00,23.6,11.8,30.06,NNE,31,7.0,16.0,60,0.00,,---,0.00,VWS V14.01,2013-01-13 02:56:00,
2013-01-12 21:00:00,23.5,11.7,30.05,NNE,13,6.0,16.0,60,0.00,,---,0.00,VWS V14.01,2013-01-13 03:00:00,
2013-01-12 21:01:00,23.5,11.7,30.05,NNE,15,4.0,16.0,60,0.00,,---,0.00,VWS V14.01,2013-01-13 03:01:00,
2013-01-12 21:06:00,23.6,11.8,30.05,North,355,5.0,11.0,60,0.00,,---,0.00,VWS V14.01,2013-01-13 03:06:00,
2013-01-12 21:11:00,23.6,12.1,30.05,NNW,342,8.0,12.0,61,0.00,,---,0.00,VWS V14.01,2013-01-13 03:11:00,
2013-01-12 21:16:00,23.6,12.1,30.05,NNW,333,5.0,14.0,61,0.00,,---,0.00,VWS V14.01,2013-01-13 03:16:00,
2013-01-12 21:21:00,23.6,12.1,30.05,NNW,341,7.0,14.0,61,0.00,,---,0.00,VWS V14.01,2013-01-13 03:21:00,
2013-01-12 21:26:00,23.6,12.1,30.05,North,10,8.0,14.0,61,0.00,,---,0.00,VWS V14.01,2013-01-13 03:26:00,
2013-01-12 21:30:00,23.8,12.3,30.06,NNW,332,9.0,14.0,61,0.00,,---,0.00,VWS V14.01,2013-01-13 03:30:00,
2013-01-12 21:31:00,23.8,12.3,30.06,NNE,17,8.0,14.0,61,0.00,,---,0.00,VWS V14.01,2013-01-13 03:31:00,
2013-01-12 21:36:00,23.8,12.3,30.06,North,5,7.0,12.0,61,0.00,,---,0.00,VWS V14.01,2013-01-13 03:36:00,
2013-01-12 21:41:00,23.9,12.4,30.06,North,355,6.0,12.0,61,0.00,,---,0.00,VWS V14.01,2013-01-13 03:41:00,
2013-01-12 21:46:00,23.9,12.4,30.06,NNW,339,6.0,14.0,61,0.00,,---,0.00,VWS V14.01,2013-01-13 03:46:00,
2013-01-12 21:51:00,23.9,12.4,30.06,NNE,29,0.0,14.0,61,0.00,,---,0.00,VWS V14.01,2013-01-13 03:51:00,
2013-01-12 21:56:00,23.9,12.1,30.06,North,360,8.0,15.0,60,0.00,,---,0.00,VWS V14.01,2013-01-13 03:56:00,
2013-01-12 22:00:00,23.8,11.9,30.05,NNE,19,8.0,15.0,60,0.00,,---,0.00,VWS V14.01,2013-01-13 04:00:00,
2013-01-12 22:01:00,23.8,12.0,30.05,NNW,340,9.0,15.0,60,0.00,,---,0.00,VWS V14.01,2013-01-13 04:01:00,
2013-01-12 22:06:00,23.8,12.0,30.05,NNW,342,3.0,14.0,60,0.00,,---,0.00,VWS V14.01,2013-01-13 04:06:00,
2013-01-12 22:11:00,23.6,11.8,30.05,North,349,8.0,14.0,60,0.00,,---,0.00,VWS V14.01,2013-01-13 04:11:00,
2013-01-12 22:16:00,23.6,11.8,30.05,NE,37,4.0,14.0,60,0.00,,---,0.00,VWS V14.01,2013-01-13 04:16:00,
2013-01-12 22:21:00,23.5,11.7,30.05,NW,325,10.0,14.0,60,0.00,,---,0.00,VWS V14.01,2013-01-13 04:21:00,
2013-01-12 22:26:00,23.5,11.7,30.05,North,355,12.0,14.0,60,0.00,,---,0.00,VWS V14.01,2013-01-13 04:26:00,
2013-01-12 22:30:00,23.3,11.5,30.07,North,360,5.0,14.0,60,0.00,,---,0.00,VWS V14.01,2013-01-13 04:30:00,
2013-01-12 22:31:00,23.3,11.5,30.05,North,355,10.0,14.0,60,0.00,,---,0.00,VWS V14.01,2013-01-13 04:31:00,
2013-01-12 22:36:00,23.3,11.5,30.07,North,360,4.0,13.0,60,0.00,,---,0.00,VWS V14.01,2013-01-13 04:36:00,
2013-01-12 22:41:00,23.2,11.0,30.07,NNW,340,2.0,14.0,59,0.00,,---,0.00,VWS V14.01,2013-01-13 04:41:00,
2013-01-12 22:46:00,23.0,10.8,30.07,North,360,8.0,14.0,59,0.00,,---,0.00,VWS V14.01,2013-01-13 04:46:00,
2013-01-12 22:51:00,22.9,10.7,30.08,NNW,345,11.0,15.0,59,0.00,,---,0.00,VWS V14.01,2013-01-13 04:51:00,
2013-01-12 22:56:00,22.7,10.5,30.08,North,360,13.0,17.0,59,0.00,,---,0.00,VWS V14.01,2013-01-13 04:56:00,
2013-01-12 23:00:00,22.7,10.5,30.08,North,9,5.0,17.0,59,0.00,,---,0.00,VWS V14.01,2013-01-13 05:00:00,
2013-01-12 23:01:00,22.5,10.4,30.08,NNW,337,6.0,17.0,59,0.00,,---,0.00,VWS V14.01,2013-01-13 05:01:00,
2013-01-12 23:06:00,22.4,10.3,30.08,NE,36,3.0,13.0,59,0.00,,---,0.00,VWS V14.01,2013-01-13 05:06:00,
2013-01-12 23:11:00,22.4,10.3,30.08,NNW,327,7.0,15.0,59,0.00,,---,0.00,VWS V14.01,2013-01-13 05:11:00,
2013-01-12 23:16:00,22.2,10.1,30.08,North,355,11.0,15.0,59,0.00,,---,0.00,VWS V14.01,2013-01-13 05:16:00,
2013-01-12 23:21:00,22.2,10.1,30.08,NNW,331,9.0,15.0,59,0.00,,---,0.00,VWS V14.01,2013-01-13 05:21:00,
2013-01-12 23:26:00,22.1,10.0,30.08,North,360,10.0,15.0,59,0.00,,---,0.00,VWS V14.01,2013-01-13 05:26:00,
2013-01-12 23:30:00,21.9,9.8,30.09,North,355,6.0,15.0,59,0.00,,---,0.00,VWS V14.01,2013-01-13 05:30:00,
2013-01-12 23:31:00,21.9,9.8,30.09,NW,306,1.0,15.0,59,0.00,,---,0.00,VWS V14.01,2013-01-13 05:31:00,
2013-01-12 23:36:00,21.8,9.7,30.09,NNW,338,6.0,14.0,59,0.00,,---,0.00,VWS V14.01,2013-01-13 05:36:00,
2013-01-12 23:41:00,21.8,9.7,30.09,NW,320,1.0,14.0,59,0.00,,---,0.00,VWS V14.01,2013-01-13 05:41:00,
2013-01-12 23:46:00,21.6,9.5,30.10,NNW,336,3.0,14.0,59,0.00,,---,0.00,VWS V14.01,2013-01-13 05:46:00,
2013-01-12 23:51:00,21.6,9.5,30.10,NE,34,2.0,14.0,59,0.00,,---,0.00,VWS V14.01,2013-01-13 05:51:00,
2013-01-12 23:56:00,21.4,9.7,30.10,WNW,294,4.0,14.0,60,0.00,,---,0.00,VWS V14.01,2013-01-13 05:56:00,